| time (UTC) | temp C | wind direction | speed KPH | gust KPH | rain 1hr cm | rain 24hr cm | rain mn cm | humidity % | barometer mb |
| 20260906073049 | 25 | 0 | 0.0 | 0.0 | 0.00 | 0.00 | 0.00 | 51 | 1024.5 |
| 20260906071555 | 24 | 0 | 0.0 | 0.0 | 0.00 | 0.00 | 0.00 | 54 | 1024.4 |
| 20260906070053 | 23 | 0 | 0.0 | 0.0 | 0.00 | 0.00 | 0.00 | 53 | 1024.5 |
| 20260906064546 | 23 | 0 | 0.0 | 0.0 | 0.00 | 0.00 | 0.00 | 54 | 1024.4 |
| 20260906063057 | 22 | 0 | 0.0 | 0.0 | 0.00 | 0.00 | 0.00 | 55 | 1024.3 |
| 20260906061554 | 21 | 0 | 0.0 | 0.0 | 0.00 | 0.00 | 0.00 | 61 | 1024.3 |
| 20260906060053 | 20 | 0 | 0.0 | 0.0 | 0.00 | 0.00 | 0.00 | 61 | 1024.1 |
| 20260906054608 | 17 | 0 | 0.0 | 0.0 | 0.00 | 0.00 | 0.00 | 70 | 1024.0 |
| 20260906053054 | 16 | 0 | 0.0 | 0.0 | 0.00 | 0.00 | 0.00 | 73 | 1023.9 |
| 20260906051603 | 15 | 0 | 0.0 | 0.0 | 0.00 | 0.00 | 0.00 | 74 | 1023.8 |
| 20260906044602 | 15 | 0 | 0.0 | 0.0 | 0.00 | 0.00 | 0.00 | 72 | 1023.8 |
| 20260906043052 | 15 | 0 | 0.0 | 0.0 | 0.00 | 0.00 | 0.00 | 72 | 1023.8 |
| 20260906041552 | 15 | 0 | 0.0 | 1.6 | 0.00 | 0.00 | 0.00 | 72 | 1023.7 |
| 20260906040105 | 15 | 0 | 0.0 | 1.6 | 0.00 | 0.00 | 0.00 | 71 | 1023.7 |
| 20260906034553 | 15 | 0 | 0.0 | 1.6 | 0.00 | 0.00 | 0.00 | 75 | 1023.5 |
| 20260906033051 | 15 | 0 | 0.0 | 1.6 | 0.00 | 0.00 | 0.00 | 71 | 1023.4 |
| 20260906031601 | 15 | 0 | 0.0 | 1.6 | 0.00 | 0.00 | 0.00 | 72 | 1023.3 |
| 20260906024558 | 15 | 0 | 0.0 | 1.6 | 0.00 | 0.00 | 0.00 | 74 | 1023.5 |
| 20260906023054 | 16 | 0 | 0.0 | 1.6 | 0.00 | 0.00 | 0.00 | 72 | 1023.6 |
| 20260906021603 | 15 | 0 | 0.0 | 1.6 | 0.00 | 0.00 | 0.00 | 74 | 1023.5 |
| 20260906020059 | 16 | 0 | 0.0 | 4.8 | 0.00 | 0.00 | 0.00 | 74 | 1023.3 |
| 20260906014633 | 16 | 0 | 0.0 | 3.2 | 0.00 | 0.00 | 0.00 | 75 | 1023.5 |
| 20260906013101 | 16 | 0 | 0.0 | 1.6 | 0.00 | 0.00 | 0.00 | 74 | 1023.6 |
| 20260906011603 | 16 | 0 | 0.0 | 4.8 | 0.00 | 0.00 | 0.00 | 73 | 1023.7 |
| 20260906010055 | 16 | 0 | 0.0 | 3.2 | 0.00 | 0.00 | 0.00 | 74 | 1023.7 |
| 20260906004613 | 16 | 0 | 0.0 | 3.2 | 0.00 | 0.00 | 0.00 | 74 | 1023.7 |
| 20260906003112 | 16 | 13 | 0.0 | 1.6 | 0.00 | 0.00 | 0.00 | 73 | 1023.8 |
| 20260906001555 | 17 | 0 | 0.0 | 3.2 | 0.00 | 0.00 | 0.00 | 73 | 1024.0 |
| 20260906000053 | 17 | 0 | 0.0 | 1.6 | 0.00 | 0.00 | 0.00 | 73 | 1023.9 |
| 20260905234610 | 17 | 0 | 0.0 | 4.8 | 0.00 | 0.00 | 0.00 | 73 | 1024.0 |
| 20260905233053 | 17 | 0 | 0.0 | 1.6 | 0.00 | 0.00 | 0.00 | 74 | 1024.1 |
| 20260905231600 | 16 | 12 | 0.0 | 0.0 | 0.00 | 0.00 | 0.00 | 75 | 1024.0 |
| 20260905230109 | 17 | 0 | 0.0 | 1.6 | 0.00 | 0.00 | 0.00 | 75 | 1023.8 |
| 20260905224604 | 17 | 0 | 0.0 | 1.6 | 0.00 | 0.00 | 0.00 | 73 | 1023.9 |
| 20260905223051 | 17 | 0 | 0.0 | 1.6 | 0.00 | 0.00 | 0.00 | 72 | 1023.9 |
| 20260905221611 | 18 | 0 | 0.0 | 3.2 | 0.00 | 0.00 | 0.00 | 69 | 1023.9 |
| 20260905220053 | 18 | 0 | 0.0 | 1.6 | 0.00 | 0.00 | 0.00 | 68 | 1023.7 |
| 20260905214603 | 18 | 0 | 0.0 | 1.6 | 0.00 | 0.00 | 0.00 | 70 | 1023.8 |
| 20260905213106 | 19 | 0 | 0.0 | 1.6 | 0.00 | 0.00 | 0.00 | 67 | 1023.8 |
| 20260905211605 | 18 | 0 | 0.0 | 4.8 | 0.00 | 0.00 | 0.00 | 71 | 1023.8 |
| 20260905204557 | 18 | 0 | 0.0 | 1.6 | 0.00 | 0.00 | 0.00 | 73 | 1023.7 |
| 20260905203056 | 18 | 0 | 0.0 | 1.6 | 0.00 | 0.00 | 0.00 | 72 | 1023.7 |
| 20260905201610 | 19 | 0 | 0.0 | 4.8 | 0.00 | 0.00 | 0.00 | 71 | 1023.7 |
| 20260905200054 | 19 | 0 | 0.0 | 1.6 | 0.00 | 0.00 | 0.00 | 70 | 1023.8 |
| 20260905194555 | 20 | 0 | 0.0 | 1.6 | 0.00 | 0.00 | 0.00 | 68 | 1023.7 |
| 20260905193110 | 21 | 0 | 0.0 | 1.6 | 0.00 | 0.00 | 0.00 | 66 | 1023.5 |
| 20260905191551 | 22 | 0 | 0.0 | 3.2 | 0.00 | 0.00 | 0.00 | 62 | 1023.4 |
| 20260905190053 | 22 | 0 | 0.0 | 3.2 | 0.00 | 0.00 | 0.00 | 59 | 1023.1 |
| 20260905184603 | 22 | 31 | 0.0 | 8.0 | 0.00 | 0.00 | 0.00 | 62 | 1023.0 |
| 20260905183108 | 22 | 0 | 0.0 | 3.2 | 0.00 | 0.00 | 0.00 | 67 | 1023.0 |
| 20260905181610 | 23 | 0 | 0.0 | 0.0 | 0.00 | 0.00 | 0.00 | 64 | 1023.0 |
| 20260905180106 | 23 | 0 | 0.0 | 0.0 | 0.00 | 0.00 | 0.00 | 64 | 1022.9 |
| 20260905174607 | 24 | 0 | 0.0 | 0.0 | 0.00 | 0.00 | 0.00 | 61 | 1022.8 |
| 20260905173103 | 25 | 0 | 0.0 | 1.6 | 0.00 | 0.00 | 0.00 | 57 | 1022.7 |
| 20260905171558 | 27 | 0 | 0.0 | 3.2 | 0.00 | 0.00 | 0.00 | 52 | 1022.5 |
| 20260905170055 | 27 | 0 | 0.0 | 8.0 | 0.00 | 0.00 | 0.00 | 50 | 1022.5 |
| 20260905164601 | 28 | 297 | 0.0 | 11.3 | 0.00 | 0.00 | 0.00 | 47 | 1022.4 |
| 20260905163058 | 29 | 313 | 0.0 | 11.3 | 0.00 | 0.00 | 0.00 | 45 | 1022.3 |
| 20260905161603 | 30 | 352 | 3.2 | 12.9 | 0.00 | 0.00 | 0.00 | 43 | 1022.2 |
| 20260905160057 | 30 | 291 | 1.6 | 17.7 | 0.00 | 0.00 | 0.00 | 42 | 1022.3 |
| 20260905154617 | 31 | 292 | 3.2 | 17.7 | 0.00 | 0.00 | 0.00 | 39 | 1022.3 |
| 20260905153056 | 31 | 287 | 4.8 | 12.9 | 0.00 | 0.00 | 0.00 | 38 | 1022.3 |
| 20260905151600 | 32 | 352 | 1.6 | 12.9 | 0.00 | 0.00 | 0.00 | 37 | 1022.2 |
| 20260905150051 | 32 | 331 | 1.6 | 12.9 | 0.00 | 0.00 | 0.00 | 35 | 1022.1 |
| 20260905144559 | 32 | 242 | 0.0 | 8.0 | 0.00 | 0.00 | 0.00 | 33 | 1022.2 |
| 20260905143054 | 32 | 255 | 3.2 | 12.9 | 0.00 | 0.00 | 0.00 | 30 | 1022.3 |
| 20260905141600 | 32 | 240 | 3.2 | 12.9 | 0.00 | 0.00 | 0.00 | 28 | 1022.4 |
| 20260905140059 | 32 | 0 | 1.6 | 14.5 | 0.00 | 0.00 | 0.00 | 30 | 1022.5 |
| 20260905134554 | 32 | 309 | 3.2 | 14.5 | 0.00 | 0.00 | 0.00 | 28 | 1022.6 |
| 20260905133100 | 33 | 243 | 3.2 | 12.9 | 0.00 | 0.00 | 0.00 | 27 | 1022.7 |
| 20260905131607 | 32 | 248 | 3.2 | 12.9 | 0.00 | 0.00 | 0.00 | 28 | 1022.7 |
| 20260905130054 | 33 | 327 | 3.2 | 16.1 | 0.00 | 0.00 | 0.00 | 30 | 1022.6 |
| 20260905124551 | 32 | 250 | 4.8 | 12.9 | 0.00 | 0.00 | 0.00 | 30 | 1022.9 |
| 20260905123102 | 32 | 0 | 3.2 | 12.9 | 0.00 | 0.00 | 0.00 | 30 | 1022.9 |
| 20260905121558 | 33 | 0 | 1.6 | 8.0 | 0.00 | 0.00 | 0.00 | 30 | 1023.2 |
| 20260905120056 | 32 | 128 | 0.0 | 9.7 | 0.00 | 0.00 | 0.00 | 38 | 1023.2 |
| 20260905114600 | 33 | 86 | 0.0 | 8.0 | 0.00 | 0.00 | 0.00 | 38 | 1023.3 |
| 20260905113056 | 32 | 0 | 0.0 | 12.9 | 0.00 | 0.00 | 0.00 | 35 | 1023.4 |
| 20260905111604 | 32 | 263 | 0.0 | 6.4 | 0.00 | 0.00 | 0.00 | 35 | 1023.5 |
| 20260905110058 | 32 | 0 | 1.6 | 6.4 | 0.00 | 0.00 | 0.00 | 38 | 1023.4 |
| 20260905104603 | 32 | 0 | 0.0 | 11.3 | 0.00 | 0.00 | 0.00 | 38 | 1023.5 |
| 20260905103056 | 31 | 0 | 0.0 | 4.8 | 0.00 | 0.00 | 0.00 | 40 | 1023.6 |
| 20260905101557 | 31 | 0 | 1.6 | 8.0 | 0.00 | 0.00 | 0.00 | 41 | 1023.8 |
| 20260905100058 | 31 | 0 | 1.6 | 8.0 | 0.00 | 0.00 | 0.00 | 43 | 1023.7 |
| 20260905094601 | 30 | 267 | 0.0 | 8.0 | 0.00 | 0.00 | 0.00 | 42 | 1023.7 |
| 20260905093055 | 30 | 263 | 0.0 | 6.4 | 0.00 | 0.00 | 0.00 | 44 | 1023.8 |
| 20260905091608 | 29 | 0 | 0.0 | 6.4 | 0.00 | 0.00 | 0.00 | 45 | 1023.7 |
| 20260905090057 | 28 | 0 | 0.0 | 4.8 | 0.00 | 0.00 | 0.00 | 46 | 1023.8 |
| 20260905084609 | 28 | 259 | 1.6 | 6.4 | 0.00 | 0.00 | 0.00 | 47 | 1023.9 |
| 20260905083053 | 28 | 0 | 1.6 | 4.8 | 0.00 | 0.00 | 0.00 | 45 | 1023.7 |
| 20260905081600 | 28 | 0 | 0.0 | 4.8 | 0.00 | 0.00 | 0.00 | 45 | 1023.7 |
| 20260905080107 | 27 | 0 | 0.0 | 4.8 | 0.00 | 0.00 | 0.00 | 47 | 1023.6 |
| 20260905074607 | 27 | 134 | 0.0 | 1.6 | 0.00 | 0.00 | 0.00 | 48 | 1023.6 |